Time,TemperatureF,DewpointF,PressureIn,WindDirection,WindDirectionDegrees,WindSpeedMPH,WindSpeedGustMPH,Humidity,HourlyPrecipIn,Conditions,Clouds,dailyrainin,SoftwareType,DateUTC
2013-08-22 00:00:00,73.3,61.7,30.09,West,265,4.0,5.0,67,0.00,,,0.00,Wunderground v.1.15,2013-08-22 04:00:00,
2013-08-22 00:05:00,73.2,61.6,30.09,West,280,5.0,5.0,67,0.00,,,0.00,Wunderground v.1.15,2013-08-22 04:05:00,
2013-08-22 00:10:00,73.3,61.7,30.09,SSW,210,5.0,5.0,67,0.00,,,0.00,Wunderground v.1.15,2013-08-22 04:10:00,
2013-08-22 00:15:00,73.2,61.6,30.09,West,260,5.0,10.0,67,0.00,,,0.00,Wunderground v.1.15,2013-08-22 04:15:00,
2013-08-22 00:20:00,73.3,61.7,30.09,West,261,6.0,7.0,67,0.00,,,0.00,Wunderground v.1.15,2013-08-22 04:20:00,
2013-08-22 00:25:00,73.4,61.3,30.09,WSW,242,6.0,7.0,66,0.00,,,0.00,Wunderground v.1.15,2013-08-22 04:25:00,
2013-08-22 00:30:00,73.4,61.3,30.09,WSW,244,6.0,6.0,66,0.00,,,0.00,Wunderground v.1.15,2013-08-22 04:30:00,
2013-08-22 00:40:00,73.0,61.4,30.09,WSW,250,5.0,6.0,67,0.00,,,0.00,Wunderground v.1.15,2013-08-22 04:40:00,
2013-08-22 00:45:00,73.0,61.4,30.09,West,269,5.0,10.0,67,0.00,,,0.00,Wunderground v.1.15,2013-08-22 04:45:00,
2013-08-22 00:50:00,72.8,61.2,30.09,WSW,244,6.0,6.0,67,0.00,,,0.00,Wunderground v.1.15,2013-08-22 04:50:00,
2013-08-22 00:55:00,72.5,61.3,30.09,West,265,5.0,7.0,68,0.00,,,0.00,Wunderground v.1.15,2013-08-22 04:55:00,
2013-08-22 01:00:00,72.3,61.1,30.09,WSW,253,6.0,6.0,68,0.00,,,0.00,Wunderground v.1.15,2013-08-22 05:00:00,
2013-08-22 01:05:00,72.2,61.0,30.09,WSW,242,6.0,6.0,68,0.00,,,0.00,Wunderground v.1.15,2013-08-22 05:05:00,
2013-08-22 01:10:00,72.0,60.9,30.09,WSW,250,5.0,5.0,68,0.00,,,0.00,Wunderground v.1.15,2013-08-22 05:10:00,
2013-08-22 01:15:00,71.9,61.2,30.09,West,265,5.0,6.0,69,0.00,,,0.00,Wunderground v.1.15,2013-08-22 05:15:00,
2013-08-22 01:25:00,71.6,60.9,30.09,WSW,256,5.0,5.0,69,0.00,,,0.00,Wunderground v.1.15,2013-08-22 05:25:00,
2013-08-22 01:30:00,71.4,60.7,30.09,SSW,211,5.0,5.0,69,0.00,,,0.00,Wunderground v.1.15,2013-08-22 05:30:00,
2013-08-22 01:40:00,71.4,61.1,30.08,SSW,209,6.0,6.0,70,0.00,,,0.00,Wunderground v.1.15,2013-08-22 05:40:00,
2013-08-22 01:45:00,71.5,60.8,30.08,West,269,6.0,6.0,69,0.00,,,0.00,Wunderground v.1.15,2013-08-22 05:45:00,
2013-08-22 01:50:00,71.5,60.8,30.09,WSW,245,6.0,6.0,69,0.00,,,0.00,Wunderground v.1.15,2013-08-22 05:50:00,
2013-08-22 01:55:00,71.4,61.1,30.09,SW,229,6.0,6.0,70,0.00,,,0.00,Wunderground v.1.15,2013-08-22 05:55:00,
2013-08-22 02:00:00,71.3,61.0,30.09,SW,234,6.0,11.0,70,0.00,,,0.00,Wunderground v.1.15,2013-08-22 06:00:00,
2013-08-22 02:05:00,71.3,60.6,30.09,SSW,206,6.0,11.0,69,0.00,,,0.00,Wunderground v.1.15,2013-08-22 06:05:00,
2013-08-22 02:10:00,71.4,60.7,30.08,SW,219,7.0,12.0,69,0.00,,,0.00,Wunderground v.1.15,2013-08-22 06:10:00,
2013-08-22 02:15:00,71.5,60.8,30.08,SW,236,7.0,12.0,69,0.00,,,0.00,Wunderground v.1.15,2013-08-22 06:15:00,
2013-08-22 02:25:00,71.3,61.0,30.09,WSW,240,5.0,6.0,70,0.00,,,0.00,Wunderground v.1.15,2013-08-22 06:25:00,
2013-08-22 02:35:00,71.1,60.8,30.08,WSW,244,5.0,7.0,70,0.00,,,0.00,Wunderground v.1.15,2013-08-22 06:35:00,
2013-08-22 02:40:00,71.0,60.7,30.08,SW,215,4.0,6.0,70,0.00,,,0.00,Wunderground v.1.15,2013-08-22 06:40:00,
2013-08-22 02:45:00,70.9,60.6,30.09,West,269,4.0,10.0,70,0.00,,,0.00,Wunderground v.1.15,2013-08-22 06:45:00,
2013-08-22 02:50:00,70.9,60.6,30.08,WSW,248,5.0,5.0,70,0.00,,,0.00,Wunderground v.1.15,2013-08-22 06:50:00,
2013-08-22 02:55:00,70.8,60.5,30.08,WSW,238,5.0,5.0,70,0.00,,,0.00,Wunderground v.1.15,2013-08-22 06:55:00,
2013-08-22 03:00:00,70.6,60.7,30.08,WSW,247,5.0,6.0,71,0.00,,,0.00,Wunderground v.1.15,2013-08-22 07:00:00,
2013-08-22 03:05:00,70.5,60.6,30.08,WSW,238,5.0,6.0,71,0.00,,,0.00,Wunderground v.1.15,2013-08-22 07:05:00,
2013-08-22 03:10:00,70.4,60.5,30.08,SW,236,4.0,4.0,71,0.00,,,0.00,Wunderground v.1.15,2013-08-22 07:10:00,
2013-08-22 03:20:00,70.4,60.9,30.08,SSW,209,4.0,4.0,72,0.00,,,0.00,Wunderground v.1.15,2013-08-22 07:20:00,
2013-08-22 03:30:00,71.1,60.8,30.08,SW,226,6.0,6.0,70,0.00,,,0.00,Wunderground v.1.15,2013-08-22 07:30:00,
2013-08-22 03:35:00,71.3,60.6,30.08,WSW,240,6.0,6.0,69,0.00,,,0.00,Wunderground v.1.15,2013-08-22 07:35:00,
2013-08-22 03:40:00,71.3,60.6,30.08,WSW,248,5.0,5.0,69,0.00,,,0.00,Wunderground v.1.15,2013-08-22 07:40:00,
2013-08-22 03:45:00,71.2,60.5,30.08,SSW,204,4.0,10.0,69,0.00,,,0.00,Wunderground v.1.15,2013-08-22 07:45:00,
2013-08-22 03:50:00,71.1,60.8,30.08,West,268,4.0,4.0,70,0.00,,,0.00,Wunderground v.1.15,2013-08-22 07:50:00,
2013-08-22 04:00:00,70.7,60.8,30.07,SW,225,5.0,7.0,71,0.00,,,0.00,Wunderground v.1.15,2013-08-22 08:00:00,
2013-08-22 04:05:00,70.7,60.8,30.07,West,270,6.0,7.0,71,0.00,,,0.00,Wunderground v.1.15,2013-08-22 08:05:00,
2013-08-22 04:15:00,71.2,60.9,30.06,SW,224,7.0,12.0,70,0.00,,,0.00,Wunderground v.1.15,2013-08-22 08:15:00,
2013-08-22 04:20:00,71.1,60.8,30.06,West,267,7.0,7.0,70,0.00,,,0.00,Wunderground v.1.15,2013-08-22 08:20:00,
2013-08-22 04:25:00,71.0,60.7,30.06,SW,229,6.0,8.0,70,0.00,,,0.00,Wunderground v.1.15,2013-08-22 08:25:00,
2013-08-22 04:35:00,71.0,60.7,30.06,SW,230,6.0,6.0,70,0.00,,,0.00,Wunderground v.1.15,2013-08-22 08:35:00,
2013-08-22 04:40:00,70.9,60.6,30.06,WSW,241,5.0,7.0,70,0.00,,,0.00,Wunderground v.1.15,2013-08-22 08:40:00,
2013-08-22 04:45:00,70.7,60.4,30.06,WSW,250,4.0,7.0,70,0.00,,,0.00,Wunderground v.1.15,2013-08-22 08:45:00,
2013-08-22 04:50:00,70.4,60.5,30.06,SW,223,4.0,6.0,71,0.00,,,0.00,Wunderground v.1.15,2013-08-22 08:50:00,
2013-08-22 04:55:00,70.3,60.4,30.06,SW,217,5.0,6.0,71,0.00,,,0.00,Wunderground v.1.15,2013-08-22 08:55:00,
2013-08-22 05:00:00,70.2,60.4,30.06,SW,231,5.0,10.0,71,0.00,,,0.00,Wunderground v.1.15,2013-08-22 09:00:00,
2013-08-22 05:10:00,69.9,60.5,30.05,SW,234,5.0,5.0,72,0.00,,,0.00,Wunderground v.1.15,2013-08-22 09:10:00,
2013-08-22 05:15:00,70.0,60.6,30.05,WSW,253,4.0,5.0,72,0.00,,,0.00,Wunderground v.1.15,2013-08-22 09:15:00,
2013-08-22 05:20:00,70.1,60.3,30.04,WSW,241,4.0,4.0,71,0.00,,,0.00,Wunderground v.1.15,2013-08-22 09:20:00,
2013-08-22 05:25:00,70.2,60.4,30.04,SW,229,5.0,5.0,71,0.00,,,0.00,Wunderground v.1.15,2013-08-22 09:25:00,
2013-08-22 05:30:00,70.2,60.4,30.04,WSW,240,6.0,6.0,71,0.00,,,0.00,Wunderground v.1.15,2013-08-22 09:30:00,
2013-08-22 05:35:00,70.1,60.3,30.04,SW,215,5.0,6.0,71,0.00,,,0.00,Wunderground v.1.15,2013-08-22 09:35:00,
2013-08-22 05:40:00,69.9,60.5,30.04,WSW,246,4.0,4.0,72,0.00,,,0.00,Wunderground v.1.15,2013-08-22 09:40:00,
2013-08-22 05:45:00,69.7,60.3,30.04,SW,226,4.0,5.0,72,0.00,,,0.00,Wunderground v.1.15,2013-08-22 09:45:00,
2013-08-22 05:50:00,69.8,60.4,30.04,SSW,198,4.0,6.0,72,0.00,,,0.00,Wunderground v.1.15,2013-08-22 09:50:00,
2013-08-22 05:55:00,69.9,60.5,30.04,WSW,249,4.0,6.0,72,0.00,,,0.00,Wunderground v.1.15,2013-08-22 09:55:00,
2013-08-22 06:00:00,69.9,60.1,30.04,WSW,252,4.0,4.0,71,0.00,,,0.00,Wunderground v.1.15,2013-08-22 10:00:00,
2013-08-22 06:10:00,70.1,60.3,30.04,WSW,248,4.0,4.0,71,0.00,,,0.00,Wunderground v.1.15,2013-08-22 10:10:00,
2013-08-22 06:15:00,69.9,60.1,30.04,WSW,252,4.0,9.0,71,0.00,,,0.00,Wunderground v.1.15,2013-08-22 10:15:00,
2013-08-22 06:20:00,69.9,60.1,30.04,SW,220,4.0,6.0,71,0.00,,,0.00,Wunderground v.1.15,2013-08-22 10:20:00,
2013-08-22 06:25:00,70.0,60.2,30.04,SW,234,4.0,6.0,71,0.00,,,0.00,Wunderground v.1.15,2013-08-22 10:25:00,
2013-08-22 06:30:00,70.0,60.2,30.04,West,264,4.0,4.0,71,0.00,,,0.00,Wunderground v.1.15,2013-08-22 10:30:00,
2013-08-22 06:35:00,70.1,60.3,30.04,SW,221,4.0,4.0,71,0.00,,,0.00,Wunderground v.1.15,2013-08-22 10:35:00,
2013-08-22 06:45:00,69.9,60.5,30.04,SW,235,5.0,5.0,72,0.00,,,0.00,Wunderground v.1.15,2013-08-22 10:45:00,
2013-08-22 08:30:00,71.8,61.1,30.04,WSW,243,4.0,6.0,69,0.00,,,0.00,Wunderground v.1.15,2013-08-22 12:30:00,
2013-08-22 08:35:00,72.0,61.7,30.04,WSW,250,4.0,7.0,70,0.00,,,0.00,Wunderground v.1.15,2013-08-22 12:35:00,
2013-08-22 08:45:00,72.0,61.3,30.04,West,270,5.0,5.0,69,0.00,,,0.00,Wunderground v.1.15,2013-08-22 12:45:00,
2013-08-22 08:50:00,71.9,61.6,30.04,SW,236,5.0,9.0,70,0.00,,,0.00,Wunderground v.1.15,2013-08-22 12:50:00,
2013-08-22 08:55:00,72.0,61.3,30.04,WSW,253,7.0,9.0,69,0.00,,,0.00,Wunderground v.1.15,2013-08-22 12:55:00,
2013-08-22 09:00:00,72.1,61.8,30.04,SW,227,7.0,7.0,70,0.00,,,0.00,Wunderground v.1.15,2013-08-22 13:00:00,
2013-08-22 09:05:00,72.2,61.9,30.04,WSW,252,6.0,7.0,70,0.00,,,0.00,Wunderground v.1.15,2013-08-22 13:05:00,
2013-08-22 09:10:00,72.2,61.9,30.04,SW,235,6.0,6.0,70,0.00,,,0.00,Wunderground v.1.15,2013-08-22 13:10:00,
2013-08-22 09:15:00,72.2,61.9,30.04,West,271,6.0,11.0,70,0.00,,,0.00,Wunderground v.1.15,2013-08-22 13:15:00,
2013-08-22 09:20:00,72.4,62.1,30.04,WSW,251,7.0,7.0,70,0.00,,,0.00,Wunderground v.1.15,2013-08-22 13:20:00,
2013-08-22 09:30:00,72.7,62.3,30.04,West,263,6.0,6.0,70,0.00,,,0.00,Wunderground v.1.15,2013-08-22 13:30:00,
2013-08-22 09:35:00,73.0,62.6,30.04,WSW,238,6.0,10.0,70,0.00,,,0.00,Wunderground v.1.15,2013-08-22 13:35:00,
2013-08-22 09:40:00,73.3,62.5,30.04,West,266,6.0,6.0,69,0.00,,,0.00,Wunderground v.1.15,2013-08-22 13:40:00,
2013-08-22 09:45:00,73.5,63.5,30.04,WSW,240,6.0,6.0,71,0.00,,,0.00,Wunderground v.1.15,2013-08-22 13:45:00,
2013-08-22 09:50:00,73.6,62.8,30.04,West,261,5.0,5.0,69,0.00,,,0.00,Wunderground v.1.15,2013-08-22 13:50:00,
2013-08-22 09:55:00,73.8,63.0,30.04,WSW,249,5.0,13.0,69,0.00,,,0.00,Wunderground v.1.15,2013-08-22 13:55:00,
2013-08-22 10:00:00,73.9,63.5,30.04,WSW,242,6.0,6.0,70,0.00,,,0.00,Wunderground v.1.15,2013-08-22 14:00:00,
2013-08-22 10:05:00,74.3,63.9,30.04,South,190,4.0,6.0,70,0.00,,,0.00,Wunderground v.1.15,2013-08-22 14:05:00,
2013-08-22 10:15:00,74.8,63.9,30.04,SW,215,5.0,5.0,69,0.00,,,0.00,Wunderground v.1.15,2013-08-22 14:15:00,
2013-08-22 10:20:00,75.1,64.2,30.04,SW,232,5.0,5.0,69,0.00,,,0.00,Wunderground v.1.15,2013-08-22 14:20:00,
2013-08-22 10:25:00,75.5,64.2,30.04,WSW,254,4.0,5.0,68,0.00,,,0.00,Wunderground v.1.15,2013-08-22 14:25:00,
2013-08-22 10:30:00,76.0,64.7,30.03,West,279,3.0,3.0,68,0.00,,,0.00,Wunderground v.1.15,2013-08-22 14:30:00,
2013-08-22 10:40:00,76.2,64.0,30.03,SSW,203,5.0,5.0,66,0.00,,,0.00,Wunderground v.1.15,2013-08-22 14:40:00,
2013-08-22 10:45:00,76.4,63.8,30.02,WSW,254,5.0,5.0,65,0.00,,,0.00,Wunderground v.1.15,2013-08-22 14:45:00,
2013-08-22 10:50:00,76.5,64.7,30.02,West,268,5.0,5.0,67,0.00,,,0.00,Wunderground v.1.15,2013-08-22 14:50:00,
2013-08-22 10:55:00,76.9,64.2,30.02,WSW,249,5.0,5.0,65,0.00,,,0.00,Wunderground v.1.15,2013-08-22 14:55:00,
2013-08-22 11:00:00,77.2,65.4,30.02,WSW,240,4.0,9.0,67,0.00,,,0.00,Wunderground v.1.15,2013-08-22 15:00:00,
2013-08-22 11:05:00,77.4,65.1,30.02,West,268,4.0,9.0,66,0.00,,,0.00,Wunderground v.1.15,2013-08-22 15:05:00,
2013-08-22 11:10:00,77.5,64.8,30.02,WSW,246,5.0,5.0,65,0.00,,,0.00,Wunderground v.1.15,2013-08-22 15:10:00,
2013-08-22 11:15:00,77.6,64.9,30.02,West,263,6.0,9.0,65,0.00,,,0.00,Wunderground v.1.15,2013-08-22 15:15:00,
2013-08-22 11:20:00,77.9,65.6,30.01,West,273,5.0,5.0,66,0.00,,,0.00,Wunderground v.1.15,2013-08-22 15:20:00,
2013-08-22 11:25:00,78.2,65.0,30.01,WSW,246,5.0,5.0,64,0.00,,,0.00,Wunderground v.1.15,2013-08-22 15:25:00,
2013-08-22 11:35:00,78.3,64.2,30.01,SW,229,6.0,6.0,62,0.00,,,0.00,Wunderground v.1.15,2013-08-22 15:35:00,
2013-08-22 11:40:00,78.5,63.9,30.01,WSW,248,5.0,5.0,61,0.00,,,0.00,Wunderground v.1.15,2013-08-22 15:40:00,
2013-08-22 11:45:00,78.8,65.1,30.01,WSW,244,4.0,5.0,63,0.00,,,0.00,Wunderground v.1.15,2013-08-22 15:45:00,
2013-08-22 11:55:00,79.2,64.1,30.01,West,281,5.0,7.0,60,0.00,,,0.00,Wunderground v.1.15,2013-08-22 15:55:00,
2013-08-22 12:00:00,79.1,64.0,30.00,WSW,244,7.0,9.0,60,0.00,,,0.00,Wunderground v.1.15,2013-08-22 16:00:00,
2013-08-22 12:10:00,79.3,64.7,30.01,WSW,251,6.0,6.0,61,0.00,,,0.00,Wunderground v.1.15,2013-08-22 16:10:00,
2013-08-22 12:15:00,79.5,64.4,30.00,SSW,207,6.0,14.0,60,0.00,,,0.00,Wunderground v.1.15,2013-08-22 16:15:00,
2013-08-22 12:25:00,80.0,65.3,30.00,WNW,284,4.0,7.0,61,0.00,,,0.00,Wunderground v.1.15,2013-08-22 16:25:00,
2013-08-22 12:30:00,79.8,65.2,30.00,SW,236,5.0,5.0,61,0.00,,,0.00,Wunderground v.1.15,2013-08-22 16:30:00,
2013-08-22 12:40:00,79.5,64.4,29.99,West,273,7.0,7.0,60,0.00,,,0.00,Wunderground v.1.15,2013-08-22 16:40:00,
2013-08-22 12:45:00,79.7,64.6,29.99,WSW,246,6.0,7.0,60,0.00,,,0.00,Wunderground v.1.15,2013-08-22 16:45:00,
2013-08-22 12:50:00,80.0,65.3,29.99,WSW,244,6.0,11.0,61,0.00,,,0.00,Wunderground v.1.15,2013-08-22 16:50:00,
2013-08-22 12:55:00,80.3,64.2,29.99,West,269,6.0,11.0,58,0.00,,,0.00,Wunderground v.1.15,2013-08-22 16:55:00,
2013-08-22 13:00:00,80.4,64.8,29.98,SW,218,6.0,6.0,59,0.00,,,0.00,Wunderground v.1.15,2013-08-22 17:00:00,
2013-08-22 13:05:00,80.7,66.0,29.98,West,267,6.0,6.0,61,0.00,,,0.00,Wunderground v.1.15,2013-08-22 17:05:00,
2013-08-22 13:10:00,81.1,65.4,29.98,SSW,211,5.0,7.0,59,0.00,,,0.00,Wunderground v.1.15,2013-08-22 17:10:00,
2013-08-22 13:15:00,80.8,64.1,29.98,SW,235,6.0,7.0,57,0.00,,,0.00,Wunderground v.1.15,2013-08-22 17:15:00,
2013-08-22 13:25:00,80.5,63.9,29.98,WNW,290,8.0,9.0,57,0.00,,,0.00,Wunderground v.1.15,2013-08-22 17:25:00,
2013-08-22 13:30:00,80.6,64.5,29.98,WSW,246,9.0,9.0,58,0.00,,,0.00,Wunderground v.1.15,2013-08-22 17:30:00,
2013-08-22 13:35:00,81.0,64.3,29.98,NW,315,8.0,9.0,57,0.00,,,0.00,Wunderground v.1.15,2013-08-22 17:35:00,
2013-08-22 13:40:00,81.2,64.5,29.98,SW,226,7.0,8.0,57,0.00,,,0.00,Wunderground v.1.15,2013-08-22 17:40:00,
2013-08-22 13:50:00,81.6,63.9,29.97,SW,234,7.0,7.0,55,0.00,,,0.00,Wunderground v.1.15,2013-08-22 17:50:00,
2013-08-22 13:55:00,81.5,62.7,29.97,SW,228,7.0,7.0,53,0.00,,,0.00,Wunderground v.1.15,2013-08-22 17:55:00,
2013-08-22 14:05:00,81.8,62.5,29.96,WNW,284,6.0,12.0,52,0.00,,,0.00,Wunderground v.1.15,2013-08-22 18:05:00,
2013-08-22 14:10:00,81.7,61.8,29.96,WNW,297,8.0,8.0,51,0.00,,,0.00,Wunderground v.1.15,2013-08-22 18:10:00,
2013-08-22 14:15:00,81.8,61.3,29.95,West,259,8.0,8.0,50,0.00,,,0.00,Wunderground v.1.15,2013-08-22 18:15:00,
2013-08-22 14:20:00,82.3,63.5,29.95,West,271,6.0,11.0,53,0.00,,,0.00,Wunderground v.1.15,2013-08-22 18:20:00,
2013-08-22 14:25:00,82.8,62.8,29.94,South,182,5.0,11.0,51,0.00,,,0.00,Wunderground v.1.15,2013-08-22 18:25:00,
2013-08-22 14:30:00,82.5,60.8,29.94,SSW,213,6.0,6.0,48,0.00,,,0.00,Wunderground v.1.15,2013-08-22 18:30:00,
2013-08-22 14:40:00,82.3,61.8,29.94,SSW,202,6.0,6.0,50,0.00,,,0.00,Wunderground v.1.15,2013-08-22 18:40:00,
2013-08-22 14:45:00,82.9,61.8,29.94,West,278,5.0,11.0,49,0.00,,,0.00,Wunderground v.1.15,2013-08-22 18:45:00,
2013-08-22 14:50:00,82.9,63.5,29.94,North,350,4.0,4.0,52,0.00,,,0.00,Wunderground v.1.15,2013-08-22 18:50:00,
2013-08-22 14:55:00,83.0,60.7,29.93,WSW,239,5.0,8.0,47,0.00,,,0.00,Wunderground v.1.15,2013-08-22 18:55:00,
2013-08-22 15:00:00,82.7,61.6,29.94,SSW,198,6.0,6.0,49,0.00,,,0.00,Wunderground v.1.15,2013-08-22 19:00:00,
2013-08-22 15:05:00,82.7,60.4,29.93,SW,234,7.0,7.0,47,0.00,,,0.00,Wunderground v.1.15,2013-08-22 19:05:00,
2013-08-22 15:10:00,82.7,60.4,29.93,SSW,211,6.0,6.0,47,0.00,,,0.00,Wunderground v.1.15,2013-08-22 19:10:00,
2013-08-22 15:15:00,82.9,59.4,29.93,WSW,240,6.0,12.0,45,0.00,,,0.00,Wunderground v.1.15,2013-08-22 19:15:00,
2013-08-22 15:20:00,82.8,59.9,29.93,SSW,202,6.0,7.0,46,0.00,,,0.00,Wunderground v.1.15,2013-08-22 19:20:00,
2013-08-22 15:25:00,83.0,60.1,29.93,SW,232,5.0,7.0,46,0.00,,,0.00,Wunderground v.1.15,2013-08-22 19:25:00,
2013-08-22 15:30:00,82.8,59.9,29.93,West,268,5.0,9.0,46,0.00,,,0.00,Wunderground v.1.15,2013-08-22 19:30:00,
2013-08-22 15:35:00,82.8,61.7,29.93,South,178,5.0,9.0,49,0.00,,,0.00,Wunderground v.1.15,2013-08-22 19:35:00,
2013-08-22 15:40:00,82.7,61.0,29.93,SW,236,5.0,5.0,48,0.00,,,0.00,Wunderground v.1.15,2013-08-22 19:40:00,
2013-08-22 15:45:00,82.6,60.3,29.92,WSW,256,6.0,6.0,47,0.00,,,0.00,Wunderground v.1.15,2013-08-22 19:45:00,
2013-08-22 15:50:00,82.7,61.6,29.92,WNW,286,6.0,12.0,49,0.00,,,0.00,Wunderground v.1.15,2013-08-22 19:50:00,
2013-08-22 15:55:00,82.7,61.6,29.92,WSW,247,6.0,12.0,49,0.00,,,0.00,Wunderground v.1.15,2013-08-22 19:55:00,
2013-08-22 16:00:00,82.6,62.1,29.92,SW,231,5.0,5.0,50,0.00,,,0.00,Wunderground v.1.15,2013-08-22 20:00:00,
2013-08-22 16:05:00,82.8,63.4,29.92,West,267,4.0,11.0,52,0.00,,,0.00,Wunderground v.1.15,2013-08-22 20:05:00,
2013-08-22 16:10:00,83.0,62.4,29.91,WSW,246,4.0,4.0,50,0.00,,,0.00,Wunderground v.1.15,2013-08-22 20:10:00,
2013-08-22 16:15:00,82.7,61.6,29.91,WSW,237,4.0,4.0,49,0.00,,,0.00,Wunderground v.1.15,2013-08-22 20:15:00,
2013-08-22 16:20:00,82.3,61.8,29.91,WNW,288,5.0,5.0,50,0.00,,,0.00,Wunderground v.1.15,2013-08-22 20:20:00,
2013-08-22 16:30:00,82.1,62.7,29.91,SW,223,5.0,5.0,52,0.00,,,0.00,Wunderground v.1.15,2013-08-22 20:30:00,
2013-08-22 16:35:00,82.0,63.7,29.91,SW,228,3.0,8.0,54,0.00,,,0.00,Wunderground v.1.15,2013-08-22 20:35:00,
2013-08-22 16:40:00,81.8,61.9,29.90,WNW,299,4.0,4.0,51,0.00,,,0.00,Wunderground v.1.15,2013-08-22 20:40:00,
2013-08-22 16:45:00,82.3,63.5,29.90,WSW,240,4.0,6.0,53,0.00,,,0.00,Wunderground v.1.15,2013-08-22 20:45:00,
2013-08-22 16:50:00,82.2,62.3,29.90,WNW,290,3.0,6.0,51,0.00,,,0.00,Wunderground v.1.15,2013-08-22 20:50:00,
2013-08-22 16:55:00,82.1,62.7,29.90,SSW,192,4.0,6.0,52,0.00,,,0.00,Wunderground v.1.15,2013-08-22 20:55:00,
2013-08-22 17:00:00,81.8,62.5,29.90,WSW,255,4.0,4.0,52,0.00,,,0.00,Wunderground v.1.15,2013-08-22 21:00:00,
2013-08-22 17:05:00,81.7,62.9,29.90,SW,226,4.0,4.0,53,0.00,,,0.00,Wunderground v.1.15,2013-08-22 21:05:00,
2013-08-22 17:10:00,81.4,63.2,29.90,West,264,4.0,8.0,54,0.00,,,0.00,Wunderground v.1.15,2013-08-22 21:10:00,
2013-08-22 17:15:00,81.0,63.8,29.89,WNW,287,5.0,8.0,56,0.00,,,0.00,Wunderground v.1.15,2013-08-22 21:15:00,
2013-08-22 17:20:00,81.2,64.0,29.89,WNW,285,4.0,5.0,56,0.00,,,0.00,Wunderground v.1.15,2013-08-22 21:20:00,
2013-08-22 17:25:00,81.1,63.4,29.89,WNW,302,4.0,7.0,55,0.00,,,0.00,Wunderground v.1.15,2013-08-22 21:25:00,
2013-08-22 17:30:00,81.1,64.4,29.90,WSW,240,4.0,4.0,57,0.00,,,0.00,Wunderground v.1.15,2013-08-22 21:30:00,
2013-08-22 17:35:00,81.1,64.9,29.90,SW,228,3.0,4.0,58,0.00,,,0.00,Wunderground v.1.15,2013-08-22 21:35:00,
2013-08-22 17:40:00,80.9,64.2,29.89,WSW,253,3.0,4.0,57,0.00,,,0.00,Wunderground v.1.15,2013-08-22 21:40:00,
2013-08-22 17:45:00,80.5,62.8,29.89,SW,223,3.0,5.0,55,0.00,,,0.00,Wunderground v.1.15,2013-08-22 21:45:00,
2013-08-22 17:50:00,80.4,62.8,29.89,WSW,257,4.0,4.0,55,0.00,,,0.00,Wunderground v.1.15,2013-08-22 21:50:00,
2013-08-22 17:55:00,80.1,63.0,29.89,SW,217,3.0,4.0,56,0.00,,,0.00,Wunderground v.1.15,2013-08-22 21:55:00,
2013-08-22 18:00:00,79.7,62.1,29.89,WSW,247,4.0,4.0,55,0.00,,,0.00,Wunderground v.1.15,2013-08-22 22:00:00,
2013-08-22 18:05:00,79.6,63.5,29.89,WSW,250,3.0,4.0,58,0.00,,,0.00,Wunderground v.1.15,2013-08-22 22:05:00,
2013-08-22 18:10:00,79.4,62.8,29.89,West,259,3.0,5.0,57,0.00,,,0.00,Wunderground v.1.15,2013-08-22 22:10:00,
2013-08-22 18:15:00,79.2,63.1,29.89,WSW,238,4.0,5.0,58,0.00,,,0.00,Wunderground v.1.15,2013-08-22 22:15:00,
2013-08-22 18:20:00,79.1,63.1,29.89,SW,233,3.0,3.0,58,0.00,,,0.00,Wunderground v.1.15,2013-08-22 22:20:00,
2013-08-22 18:25:00,79.2,63.6,29.89,West,266,3.0,3.0,59,0.00,,,0.00,Wunderground v.1.15,2013-08-22 22:25:00,
2013-08-22 18:30:00,79.2,63.6,29.89,West,262,3.0,4.0,59,0.00,,,0.00,Wunderground v.1.15,2013-08-22 22:30:00,
2013-08-22 18:35:00,78.9,62.4,29.88,WSW,237,3.0,5.0,57,0.00,,,0.00,Wunderground v.1.15,2013-08-22 22:35:00,
2013-08-22 18:40:00,78.6,62.6,29.88,SW,229,4.0,5.0,58,0.00,,,0.00,Wunderground v.1.15,2013-08-22 22:40:00,
2013-08-22 18:45:00,78.2,62.2,29.88,SW,223,4.0,5.0,58,0.00,,,0.00,Wunderground v.1.15,2013-08-22 22:45:00,
2013-08-22 18:50:00,78.0,62.5,29.88,West,263,4.0,4.0,59,0.00,,,0.00,Wunderground v.1.15,2013-08-22 22:50:00,
2013-08-22 18:55:00,77.8,61.8,29.88,WSW,257,3.0,6.0,58,0.00,,,0.00,Wunderground v.1.15,2013-08-22 22:55:00,
2013-08-22 19:00:00,77.8,61.8,29.88,SW,232,4.0,4.0,58,0.00,,,0.00,Wunderground v.1.15,2013-08-22 23:00:00,
2013-08-22 19:10:00,77.7,61.3,29.88,SW,229,4.0,4.0,57,0.00,,,0.00,Wunderground v.1.15,2013-08-22 23:10:00,
2013-08-22 19:15:00,77.6,61.2,29.88,South,175,4.0,4.0,57,0.00,,,0.00,Wunderground v.1.15,2013-08-22 23:15:00,
2013-08-22 19:20:00,77.6,61.2,29.88,WNW,296,4.0,4.0,57,0.00,,,0.00,Wunderground v.1.15,2013-08-22 23:20:00,
2013-08-22 19:25:00,77.6,61.2,29.88,SW,219,4.0,4.0,57,0.00,,,0.00,Wunderground v.1.15,2013-08-22 23:25:00,
2013-08-22 19:30:00,77.5,61.6,29.88,SW,215,4.0,5.0,58,0.00,,,0.00,Wunderground v.1.15,2013-08-22 23:30:00,
2013-08-22 19:35:00,77.4,62.4,29.88,SW,226,3.0,5.0,60,0.00,,,0.00,Wunderground v.1.15,2013-08-22 23:35:00,
2013-08-22 19:40:00,77.2,62.7,29.87,SSW,213,2.0,2.0,61,0.00,,,0.00,Wunderground v.1.15,2013-08-22 23:40:00,
2013-08-22 19:45:00,77.1,62.6,29.87,SW,234,2.0,5.0,61,0.00,,,0.00,Wunderground v.1.15,2013-08-22 23:45:00,
2013-08-22 19:50:00,77.1,62.6,29.87,SSW,211,3.0,4.0,61,0.00,,,0.00,Wunderground v.1.15,2013-08-22 23:50:00,
2013-08-22 19:55:00,77.1,62.1,29.87,SW,226,4.0,4.0,60,0.00,,,0.00,Wunderground v.1.15,2013-08-22 23:55:00,
2013-08-22 20:00:00,77.1,62.1,29.87,SSW,213,4.0,4.0,60,0.00,,,0.00,Wunderground v.1.15,2013-08-23 00:00:00,
2013-08-22 20:05:00,77.0,62.0,29.87,SW,226,4.0,4.0,60,0.00,,,0.00,Wunderground v.1.15,2013-08-23 00:05:00,
2013-08-22 20:10:00,76.8,61.4,29.87,SW,234,4.0,9.0,59,0.00,,,0.00,Wunderground v.1.15,2013-08-23 00:10:00,
2013-08-22 20:15:00,76.9,61.5,29.87,SW,233,4.0,9.0,59,0.00,,,0.00,Wunderground v.1.15,2013-08-23 00:15:00,
2013-08-22 20:25:00,76.8,61.9,29.87,SSW,211,4.0,7.0,60,0.00,,,0.00,Wunderground v.1.15,2013-08-23 00:25:00,
2013-08-22 20:35:00,76.8,62.8,29.87,SW,220,3.0,3.0,62,0.00,,,0.00,Wunderground v.1.15,2013-08-23 00:35:00,
2013-08-22 20:40:00,76.5,62.5,29.87,SW,224,4.0,4.0,62,0.00,,,0.00,Wunderground v.1.15,2013-08-23 00:40:00,
2013-08-22 20:45:00,76.4,62.0,29.87,SW,234,4.0,9.0,61,0.00,,,0.00,Wunderground v.1.15,2013-08-23 00:45:00,
2013-08-22 20:50:00,76.5,61.6,29.87,WSW,243,6.0,11.0,60,0.00,,,0.00,Wunderground v.1.15,2013-08-23 00:50:00,
2013-08-22 20:55:00,76.5,61.6,29.88,West,261,6.0,11.0,60,0.00,,,0.00,Wunderground v.1.15,2013-08-23 00:55:00,
2013-08-22 21:00:00,76.5,61.6,29.88,WNW,285,8.0,9.0,60,0.00,,,0.00,Wunderground v.1.15,2013-08-23 01:00:00,
2013-08-22 21:05:00,76.2,61.8,29.88,WSW,255,9.0,9.0,61,0.00,,,0.00,Wunderground v.1.15,2013-08-23 01:05:00,
2013-08-22 21:10:00,76.0,62.0,29.88,WSW,244,9.0,15.0,62,0.00,,,0.00,Wunderground v.1.15,2013-08-23 01:10:00,
2013-08-22 21:20:00,75.4,62.4,29.88,WSW,245,8.0,9.0,64,0.00,,,0.00,Wunderground v.1.15,2013-08-23 01:20:00,
2013-08-22 21:25:00,75.1,62.5,29.88,West,264,8.0,9.0,65,0.00,,,0.00,Wunderground v.1.15,2013-08-23 01:25:00,
2013-08-22 21:30:00,74.9,62.8,29.88,SSW,202,7.0,7.0,66,0.00,,,0.00,Wunderground v.1.15,2013-08-23 01:30:00,
2013-08-22 21:35:00,74.7,63.0,29.88,West,266,7.0,12.0,67,0.00,,,0.00,Wunderground v.1.15,2013-08-23 01:35:00,
2013-08-22 21:40:00,74.6,62.9,29.88,SW,223,8.0,8.0,67,0.00,,,0.00,Wunderground v.1.15,2013-08-23 01:40:00,
2013-08-22 21:45:00,74.4,63.1,29.87,WSW,250,8.0,10.0,68,0.00,,,0.00,Wunderground v.1.15,2013-08-23 01:45:00,
2013-08-22 21:50:00,74.4,63.1,29.88,WSW,254,7.0,10.0,68,0.00,,,0.00,Wunderground v.1.15,2013-08-23 01:50:00,
2013-08-22 21:55:00,74.3,63.1,29.88,SW,234,6.0,10.0,68,0.00,,,0.00,Wunderground v.1.15,2013-08-23 01:55:00,
2013-08-22 22:00:00,74.1,62.9,29.87,SW,228,5.0,10.0,68,0.00,,,0.00,Wunderground v.1.15,2013-08-23 02:00:00,
2013-08-22 22:05:00,74.0,62.8,29.87,SW,223,5.0,10.0,68,0.00,,,0.00,Wunderground v.1.15,2013-08-23 02:05:00,
2013-08-22 22:10:00,73.9,62.7,29.87,WSW,257,4.0,5.0,68,0.00,,,0.00,Wunderground v.1.15,2013-08-23 02:10:00,
2013-08-22 22:15:00,73.7,62.9,29.87,WSW,246,4.0,9.0,69,0.00,,,0.00,Wunderground v.1.15,2013-08-23 02:15:00,
2013-08-22 22:20:00,73.5,62.7,29.87,West,260,4.0,4.0,69,0.00,,,0.00,Wunderground v.1.15,2013-08-23 02:20:00,
2013-08-22 22:25:00,73.3,62.9,29.88,WSW,238,4.0,4.0,70,0.00,,,0.00,Wunderground v.1.15,2013-08-23 02:25:00,
2013-08-22 22:30:00,73.0,63.0,29.88,SW,219,3.0,3.0,71,0.00,,,0.00,Wunderground v.1.15,2013-08-23 02:30:00,
2013-08-22 22:35:00,72.9,62.9,29.88,West,263,3.0,3.0,71,0.00,,,0.00,Wunderground v.1.15,2013-08-23 02:35:00,
2013-08-22 22:40:00,72.8,62.8,29.87,WSW,246,4.0,4.0,71,0.00,,,0.00,Wunderground v.1.15,2013-08-23 02:40:00,
2013-08-22 22:45:00,72.6,62.7,29.87,West,266,3.0,4.0,71,0.00,,,0.00,Wunderground v.1.15,2013-08-23 02:45:00,
2013-08-22 22:50:00,72.5,63.0,29.87,West,269,3.0,4.0,72,0.00,,,0.00,Wunderground v.1.15,2013-08-23 02:50:00,
2013-08-22 22:55:00,72.4,62.9,29.87,SW,235,3.0,4.0,72,0.00,,,0.00,Wunderground v.1.15,2013-08-23 02:55:00,
2013-08-22 23:00:00,72.3,62.8,29.87,West,262,3.0,3.0,72,0.00,,,0.00,Wunderground v.1.15,2013-08-23 03:00:00,
2013-08-22 23:10:00,72.2,62.3,29.88,WSW,253,3.0,3.0,71,0.00,,,0.00,Wunderground v.1.15,2013-08-23 03:10:00,
2013-08-22 23:15:00,72.1,62.6,29.88,WSW,247,3.0,3.0,72,0.00,,,0.00,Wunderground v.1.15,2013-08-23 03:15:00,
2013-08-22 23:20:00,72.1,62.6,29.88,WSW,254,2.0,3.0,72,0.00,,,0.00,Wunderground v.1.15,2013-08-23 03:20:00,
2013-08-22 23:25:00,71.9,62.4,29.88,WSW,255,3.0,3.0,72,0.00,,,0.00,Wunderground v.1.15,2013-08-23 03:25:00,
2013-08-22 23:35:00,71.7,62.6,29.88,West,268,2.0,3.0,73,0.00,,,0.00,Wunderground v.1.15,2013-08-23 03:35:00,
2013-08-22 23:40:00,71.6,62.5,29.88,WSW,242,2.0,2.0,73,0.00,,,0.00,Wunderground v.1.15,2013-08-23 03:40:00,
2013-08-22 23:45:00,71.5,62.8,29.88,SSW,200,1.0,2.0,74,0.00,,,0.00,Wunderground v.1.15,2013-08-23 03:45:00,
2013-08-22 23:50:00,71.3,62.6,29.88,SW,230,1.0,1.0,74,0.00,,,0.00,Wunderground v.1.15,2013-08-23 03:50:00,
2013-08-22 23:55:00,71.3,62.6,29.89,SW,230,1.0,1.0,74,0.00,,,0.00,Wunderground v.1.15,2013-08-23 03:55:00,